GW6516 Weather Reports


Display with metric or nautical units.
time (UTC)temp
F
wind
direction
speed
MPH
gust
MPH
rain 1hr
in
rain 24hr
in
rain mn
in
humidity
%
barometer
mb
20260504185529 53 0 0.0 0.0 0.00 0.29 0.00 90 1017.6
20260504185030 54 0 0.0 0.0 0.00 0.29 0.00 90 1017.6
20260504184544 54 0 0.0 0.0 0.00 0.29 0.00 90 1017.7
20260504184031 54 0 0.0 0.0 0.00 0.29 0.00 91 1017.7
20260504183606 54 0 0.0 0.0 0.00 0.29 0.00 90 1017.7
20260504183054 55 0 0.0 0.0 0.00 0.29 0.00 91 1017.7
20260504182528 55 0 0.0 0.0 0.00 0.29 0.00 90 1017.8
20260504182030 55 0 0.0 0.0 0.00 0.29 0.00 91 1017.7
20260504181543 55 0 0.0 0.0 0.00 0.29 0.00 91 1017.6
20260504181030 55 0 0.0 0.0 0.00 0.29 0.00 91 1017.6
20260504180527 55 0 0.0 0.0 0.00 0.29 0.00 90 1017.6
20260504180112 56 0 0.0 0.0 0.00 0.29 0.00 90 1017.7
20260504175529 56 0 0.0 0.0 0.00 0.32 0.29 90 1017.8
20260504175030 56 0 0.0 0.0 0.00 0.32 0.29 90 1017.8
20260504174538 56 0 0.0 1.0 0.00 0.32 0.29 90 1017.7
20260504174027 56 0 0.0 2.0 0.00 0.32 0.29 90 1017.7
20260504173532 56 0 0.0 2.0 0.00 0.32 0.29 90 1017.7
20260504173039 56 0 0.0 2.0 0.00 0.32 0.29 90 1017.6
20260504172529 56 0 0.0 0.0 0.00 0.32 0.29 90 1017.5
20260504172029 56 0 0.0 0.0 0.00 0.32 0.29 90 1017.5
20260504171541 56 0 0.0 0.0 0.00 0.32 0.29 90 1017.6
20260504171033 56 0 0.0 0.0 0.00 0.32 0.29 90 1017.6
20260504170530 56 0 0.0 0.0 0.00 0.32 0.29 90 1017.6
20260504151027 58 0 0.0 0.0 0.00 0.33 0.29 88 1018.5
20260504150528 58 0 0.0 0.0 0.00 0.33 0.29 87 1018.5
20260504141026 59 0 0.0 0.0 0.00 0.33 0.29 86 1018.3
20260504140526 59 0 0.0 0.0 0.00 0.33 0.29 86 1018.3
20260504130529 60 0 0.0 2.0 0.00 0.33 0.29 83 1018.1
20260504110527 61 103 0.0 3.0 0.00 0.33 0.29 79 1017.7
20260504100529 60 0 0.0 3.0 0.02 0.33 0.29 88 1017.8
20260504081541 63 91 1.0 4.0 0.00 0.30 0.27 77 1018.3
20260504081027 63 90 0.0 4.0 0.00 0.30 0.27 76 1018.3
20260504080532 63 0 1.0 3.0 0.00 0.30 0.27 78 1018.4
20260504050529 59 0 0.0 0.0 0.00 0.29 0.26 84 1018.8
20260504050113 59 0 0.0 0.0 0.00 0.29 0.26 84 1018.7
20260504045526 59 0 0.0 0.0 0.00 0.29 0.26 85 1018.7
20260504045032 59 0 0.0 0.0 0.00 0.29 0.26 85 1018.7
20260504044546 58 0 0.0 0.0 0.00 0.29 0.26 85 1018.7
20260504044029 58 0 0.0 0.0 0.00 0.29 0.26 86 1018.7
20260504043527 58 0 0.0 1.0 0.00 0.29 0.26 86 1018.7
20260504043052 58 0 0.0 1.0 0.00 0.29 0.26 87 1018.7
20260504042529 58 0 0.0 0.0 0.00 0.29 0.26 88 1018.7
20260504042032 58 0 0.0 0.0 0.00 0.29 0.26 88 1018.8
20260504041539 57 0 0.0 0.0 0.00 0.29 0.26 89 1018.7
20260504041026 57 0 0.0 0.0 0.00 0.29 0.26 89 1018.7
20260504040528 57 0 0.0 0.0 0.01 0.29 0.26 90 1018.7
20260504040047 57 0 0.0 0.0 0.01 0.29 0.26 90 1018.7
20260504035527 57 0 0.0 0.0 0.02 0.29 0.26 90 1018.7
20260504035032 57 0 0.0 0.0 0.02 0.29 0.26 91 1018.7
20260504034544 56 0 0.0 1.0 0.03 0.29 0.26 91 1018.7
20260504034030 56 0 0.0 1.0 0.03 0.29 0.26 91 1018.7
20260504033530 56 0 0.0 1.0 0.04 0.29 0.26 91 1018.6
20260504033051 56 0 0.0 0.0 0.05 0.29 0.26 91 1018.6
20260504032527 56 0 0.0 2.0 0.06 0.29 0.26 91 1018.6
20260504032027 56 0 0.0 2.0 0.06 0.29 0.26 91 1018.6
20260504031546 56 186 0.0 1.0 0.06 0.29 0.25 91 1018.5
20260504031028 56 0 0.0 0.0 0.07 0.29 0.25 91 1018.6
20260504030528 56 0 0.0 0.0 0.06 0.28 0.25 91 1018.6
20260504030047 55 0 0.0 2.0 0.07 0.28 0.25 91 1018.6
20260504025530 55 0 0.0 2.0 0.06 0.27 0.24 91 1018.7
20260504025031 55 0 0.0 0.0 0.06 0.27 0.24 91 1018.7
20260504024546 55 0 0.0 0.0 0.05 0.26 0.23 91 1018.6
20260504024026 55 0 0.0 0.0 0.05 0.25 0.22 91 1018.6
20260504023527 55 0 0.0 0.0 0.04 0.25 0.22 91 1018.6
20260504023047 55 0 0.0 0.0 0.04 0.24 0.21 91 1018.6
20260504022530 55 0 0.0 0.0 0.03 0.23 0.20 91 1018.5
20260504022027 55 0 0.0 0.0 0.03 0.22 0.19 91 1018.6
20260504021541 55 0 0.0 0.0 0.03 0.22 0.19 91 1018.5
20260504021026 55 0 0.0 0.0 0.03 0.22 0.18 91 1018.5
20260504020527 55 0 0.0 0.0 0.03 0.22 0.18 90 1018.5
20260504020051 55 0 0.0 2.0 0.03 0.21 0.18 90 1018.6
20260504015527 55 0 0.0 2.0 0.03 0.21 0.18 90 1018.5
20260504015028 55 0 0.0 0.0 0.04 0.21 0.18 90 1018.6
20260504014549 55 0 0.0 0.0 0.03 0.20 0.17 90 1018.5
20260504014027 55 0 0.0 0.0 0.04 0.20 0.17 90 1018.5
20260504013527 55 0 0.0 0.0 0.05 0.20 0.17 90 1018.5
20260504013050 55 0 0.0 0.0 0.04 0.19 0.16 90 1018.4
20260504012527 55 0 0.0 0.0 0.05 0.19 0.16 90 1018.4
20260504012027 55 0 0.0 2.0 0.04 0.18 0.15 90 1018.4
20260504011548 55 0 0.0 2.0 0.04 0.18 0.15 90 1018.4
20260504011030 55 0 0.0 2.0 0.04 0.18 0.14 90 1018.4
20260504010529 55 0 0.0 2.0 0.04 0.18 0.14 90 1018.3
20260504010046 55 180 0.0 1.0 0.03 0.17 0.14 90 1018.2
20260504005529 55 0 0.0 1.0 0.03 0.17 0.14 89 1018.2
20260504005029 55 0 0.0 2.0 0.03 0.16 0.13 89 1018.2
20260504004548 55 0 0.0 2.0 0.03 0.16 0.13 89 1018.1
20260504004031 55 0 0.0 1.0 0.02 0.15 0.12 89 1018.1
20260504003527 55 0 0.0 1.0 0.01 0.14 0.11 89 1018.2
20260504003041 55 0 0.0 0.0 0.01 0.14 0.11 89 1018.1
20260504002527 55 0 0.0 0.0 0.00 0.14 0.11 89 1018.1
20260504002030 55 0 0.0 2.0 0.00 0.14 0.11 89 1018.1
20260504001540 55 0 0.0 2.0 0.00 0.14 0.11 89 1018.0
20260504001030 55 0 0.0 2.0 0.00 0.13 0.10 89 1018.0
20260504000526 55 0 0.0 2.0 0.00 0.13 0.10 89 1018.0
20260504000051 55 0 0.0 2.0 0.00 0.13 0.10 89 1018.0
20260503235527 55 0 0.0 4.0 0.00 0.13 0.10 89 1018.0
20260503235027 55 160 0.0 4.0 0.00 0.13 0.10 89 1018.0
20260503234542 55 173 0.0 2.0 0.00 0.13 0.10 90 1017.9
20260503234027 55 0 0.0 2.0 0.00 0.13 0.10 90 1017.9
20260503233526 55 0 0.0 2.0 0.00 0.13 0.10 90 1017.9
20260503233041 55 0 0.0 2.0 0.00 0.13 0.10 90 1017.9
20260503232528 56 0 0.0 2.0 0.00 0.13 0.10 90 1017.9
20260503232028 56 0 0.0 2.0 0.00 0.13 0.10 90 1017.8
20260503231541 56 0 0.0 2.0 0.01 0.13 0.10 90 1017.8
20260503231029 56 0 0.0 0.0 0.00 0.12 0.09 90 1017.9
20260503230529 56 0 0.0 0.0 0.01 0.12 0.09 90 1017.9
20260503225530 56 0 0.0 0.0 0.02 0.12 0.09 90 1017.9
20260503225029 56 0 0.0 0.0 0.03 0.12 0.09 89 1017.9
20260503224545 56 0 0.0 0.0 0.03 0.12 0.09 89 1017.9
20260503224027 56 0 0.0 0.0 0.03 0.12 0.09 89 1017.8
20260503223528 56 0 0.0 0.0 0.03 0.12 0.09 89 1017.8
20260503223042 56 0 0.0 0.0 0.03 0.12 0.09 89 1017.8
20260503222531 56 0 0.0 0.0 0.03 0.12 0.09 89 1017.9
20260503222032 56 0 0.0 0.0 0.03 0.12 0.09 89 1017.7
20260503221539 56 0 0.0 0.0 0.03 0.11 0.08 89 1017.7
20260503221030 56 0 0.0 0.0 0.03 0.11 0.08 89 1017.6
20260503220527 56 0 0.0 0.0 0.03 0.11 0.07 89 1017.5
20260503220049 56 0 0.0 0.0 0.02 0.10 0.07 89 1017.6
20260503215526 56 0 0.0 0.0 0.03 0.10 0.07 89 1017.6
20260503215027 56 0 0.0 0.0 0.02 0.09 0.06 89 1017.5
20260503214547 56 0 0.0 0.0 0.02 0.09 0.06 89 1017.5
20260503214030 56 0 0.0 0.0 0.02 0.09 0.06 89 1017.5
20260503213527 57 0 0.0 0.0 0.03 0.09 0.06 89 1017.4
20260503213041 57 0 0.0 0.0 0.03 0.09 0.06 89 1017.4
20260503212527 57 0 0.0 0.0 0.03 0.09 0.06 89 1017.4
20260503212027 57 0 0.0 0.0 0.03 0.08 0.05 89 1017.4
20260503211549 57 0 0.0 0.0 0.03 0.08 0.05 89 1017.4
20260503211028 57 0 0.0 0.0 0.03 0.07 0.04 89 1017.4
20260503210527 57 0 0.0 0.0 0.03 0.07 0.04 89 1017.4
20260503210040 57 0 0.0 0.0 0.03 0.07 0.04 89 1017.5
20260503205527 57 0 0.0 0.0 0.03 0.07 0.03 88 1017.5
20260503205027 57 0 0.0 0.0 0.03 0.07 0.03 88 1017.5
20260503204547 57 0 0.0 0.0 0.03 0.07 0.03 88 1017.5
20260503204031 57 0 0.0 0.0 0.03 0.07 0.03 88 1017.5
20260503203530 58 0 0.0 0.0 0.03 0.06 0.03 88 1017.4
20260503203046 58 0 0.0 0.0 0.03 0.06 0.03 88 1017.5
20260503202527 58 0 0.0 0.0 0.03 0.06 0.03 88 1017.4
20260503202029 58 0 0.0 0.0 0.02 0.05 0.02 88 1017.4
20260503201541 58 0 0.0 0.0 0.02 0.05 0.02 88 1017.4
20260503201027 58 0 0.0 0.0 0.01 0.04 0.01 88 1017.3
20260503200527 58 0 0.0 0.0 0.01 0.04 0.01 88 1017.3
20260503200054 58 0 0.0 0.0 0.00 0.03 0.00 88 1017.3
20260503195528 58 0 0.0 0.0 0.00 0.03 0.00 88 1017.3
20260503195028 58 0 0.0 0.0 0.00 0.03 0.00 88 1017.3
20260503194545 58 0 0.0 0.0 0.00 0.03 0.00 88 1017.3
20260503194027 58 0 0.0 0.0 0.00 0.03 0.00 88 1017.3
20260503193527 58 0 0.0 0.0 0.00 0.03 0.00 88 1017.3
20260503193057 58 0 0.0 0.0 0.00 0.03 0.00 88 1017.3
20260503192527 58 0 0.0 0.0 0.00 0.03 0.00 88 1017.2
20260503192028 58 0 0.0 0.0 0.00 0.03 0.00 88 1017.2
20260503191546 58 0 0.0 0.0 0.00 0.03 0.00 88 1017.1
20260503191027 58 0 0.0 0.0 0.00 0.03 0.00 88 1017.2
20260503190527 58 0 0.0 0.0 0.00 0.03 0.00 88 1017.1
20260503190044 58 0 0.0 0.0 0.00 0.03 0.00 87 1017.2